This is the latest recevied weather packets stored in our database for station/object SQ5AAG-2. If no packets are shown the sender has not sent any weather packets the latest 10 day(s).
| Time | Temp. | Humidity | Pressure | Rain* | Wind** | Luminosity | Snow |
|---|---|---|---|---|---|---|---|
| 1787835787 | 23.33° C | 44% | 1009.2 hPa | 0 mm | - | - | - |
| 1787835651 | 24.44° C | 44% | 1008.4 hPa | 0 mm | - | - | - |
| 1787835351 | 24.44° C | 44% | 1008.5 hPa | 0 mm | - | - | - |
| 1787835151 | 24.44° C | 44% | 1009.3 hPa | 0 mm | - | - | - |
| 1787835051 | 23.89° C | 44% | 1008.4 hPa | 0 mm | - | - | - |
| 1787834825 | 24.44° C | 45% | 1009.4 hPa | 0 mm | - | - | - |
| 1787834751 | 23.89° C | 43% | 1008.5 hPa | 0 mm | - | - | - |
| 1787834588 | 24.44° C | 45% | 1009.4 hPa | 0 mm | - | - | - |
| 1787834450 | 23.89° C | 43% | 1008.4 hPa | 0 mm | - | - | - |
| 1787834308 | 24.44° C | 46% | 1009.3 hPa | 0 mm | - | - | - |
| 1787834150 | 24.44° C | 43% | 1008.7 hPa | 0 mm | - | - | - |
| 1787833849 | 24.44° C | 42% | 1008.6 hPa | 0 mm | - | - | - |
| 1787833688 | 24.44° C | 45% | 1009.4 hPa | 0 mm | - | - | - |
| 1787833549 | 25° C | 41% | 1008.6 hPa | 0 mm | - | - | - |
| 1787833396 | 24.44° C | 45% | 1009.5 hPa | 0 mm | - | - | - |
| 1787833071 | 24.44° C | 46% | 1009.3 hPa | 0 mm | - | - | - |
| 1787832776 | 23.89° C | 47% | 1009.4 hPa | 0 mm | - | - | - |
| 1787832103 | 23.89° C | 43% | 1008.9 hPa | 0 mm | - | - | - |
| 1787832029 | 22.78° C | 50% | 1009.3 hPa | 0 mm | - | - | - |
| 1787831807 | 23.89° C | 44% | 1008.7 hPa | 0 mm | - | - | - |
| 1787831538 | 22.78° C | 50% | 1009.3 hPa | 0 mm | - | - | - |
| 1787831507 | 23.89° C | 43% | 1008.8 hPa | 0 mm | - | - | - |
| 1787831203 | 23.89° C | 44% | 1008.9 hPa | 0 mm | - | - | - |
| 1787831142 | 22.78° C | 50% | 1009.6 hPa | 0 mm | - | - | - |
| 1787830902 | 24.44° C | 44% | 1008.9 hPa | 0 mm | - | - | - |
* Rain latest hour (hover to see other rain measurements)
** Current wind speed in m/s (hover to see current wind gust speed)